FENGYUN 2B AKM, 26460

Orbit data source: Space-Track

FENGYUN 2B AKM, 26460 is space debris in GEO originally from a launch on Sun, 25 Jun 2000 UTC launched from the Xichang Space Center, China (XSC). Debris objects in space refer to the collection of defunct objects orbiting the Earth. Examples of debris include non-operational satellites, rocket bodies, and fragments generated from explosions, collisions, or faulty payload assembly.

Loading next visibility...
Identifier
26460, 2000-032C
Orbit
GEO
Country
Flag of CNCN / PRC
Related business
Manufacturer
China ARMT
Mission
Spacecraft
Bus & Motor
SHANXI AKM, Unknown motor
Mass
729 kg wet, ~50 kg dry
Launch date (UTC)
2000-06-25 (26 years ago)
Launch vehicle
Unknown
Launch site
Xichang Space Center, China (XSC)
Object type
Payload
Rocket body
Debris
Shape & HBR
Cyl + Cone, 0.8 m
Radar Cross Section
1.571 m², Large (>1 m²)

Expand to show TLE details & history
Last TLE update: 12 hours ago

TLE from 12 hours ago
0 FENGYUN 2B AKM
1 26460U 00032C   26074.04295874  .00000013  00000-0  00000-0 0  9995
2 26460  14.3840   6.9742 0022945  35.2673 324.8950  1.00196267121249
Epoch: 2026-03-15T01:01Z
TLE epoch observation values (Epoch: 2026-03-15T01:01:51.635Z)
Latitude
-0.00002°
Longitude
178.87003°
Altitude
35,728.063 km
Speed
3.08 km/s
True Right ascension
00h 27m 57s
True Declination
0° 00' 00"
Sunlit
Object was in daylight at epoch
Visualization orbit readout
Latitude
Unknown
Longitude
Unknown
Altitude
Unknown
Speed
Unknown
Apparent Right ascension
Unknown
Apparent Declination
Unknown
Sunlit
N/A
Visualization observer readout
Local Sidereal Time
18:00:22
Azimuth
Unknown
Elevation
Unknown
Doppler factor
Unknown
Orbital elements
Apogee altitude
35,905.55 km
Perigee altitude
35,711.954 km
Semi-major axis
42,186.889 km
Eccentricity
0.00229
Inclination
14.384°
RAAN
6.9742°
Arg. of periapsis
35.2673°
True anomaly
324.74344°
Mean anomaly
324.895°
Eccentric anomaly
324.81926°
Mean motion
0.25048 °/min
Orbital period
1,437.23 mins
BSTAR
0
Loading maneuver chart data...
Computing Atmospheric mass density...
Loading historical data...
Loading historical data...
Loading historical data...
Loading historical data...
Loading historical data...
Loading historical data...
Loading historical data...
Other satellites on launch #32 in the year 2000 (2000-06-25 UTC)

Documentation

Showing up to 5 results
|